#timestamp,LO_Frequency,Hit,StdDev 
1505026815.8,286046997.1,N,2.9
1505026835.6,286046997.3,N,2.9
1505026855.4,286046997.4,N,3.0
1505026875.3,286046998.2,N,3.0
1505026895.1,286047001.0,N,2.8
1505026915.9,286047001.6,N,2.8
1505026935.7,286047002.7,N,2.8
1505026955.5,286046999.9,N,2.8
1505026975.4,286047004.1,N,2.8
1505026995.2,286047003.7,N,2.9
1505027015.0,286047006.0,N,3.0
1505027016.0,286047006.0,N,3.1
1505027035.8,286047005.4,N,3.1
1505027055.6,286047006.5,N,3.3
1505027075.5,286047004.7,N,3.3
1505027095.3,286047004.6,N,3.3
1505027115.1,286047003.7,N,3.3
1505027135.9,286047002.1,N,3.3
1505027155.7,286047002.6,N,3.3
1505027175.6,286047001.5,N,3.2
1505027195.4,286047001.6,N,3.2
1505027215.2,286047002.7,N,3.1
1505027235.1,286046998.7,N,3.1
1505027236.0,286046998.7,N,3.2
1505027255.8,286046998.8,N,3.2
1505027275.7,286046997.6,N,3.1
1505027295.5,286046997.4,N,3.1
1505027315.3,286046995.1,N,3.2
1505027335.2,286046998.0,N,3.2
1505027355.9,286046996.2,N,3.3
1505027375.7,286046996.0,N,3.3
1505027395.6,286046997.7,N,3.3
1505027415.4,286046994.9,N,3.4
1505027435.3,286046995.3,N,3.5
1505027455.1,286046996.0,N,3.6
1505027456.0,286046996.0,N,3.7
1505027475.8,286046995.8,N,3.8
1505027495.7,286046993.6,N,4.0
1505027515.5,286046994.4,N,4.0
1505027535.4,286046993.7,N,4.1
1505027555.2,286046994.6,N,4.0
1505027575.0,286046992.9,N,3.9
1505027575.9,286046992.9,N,3.8
1505027595.8,286046993.0,N,3.6
1505027615.6,286046991.9,N,3.5
1505027635.4,286046992.4,N,3.3
1505027655.3,286046992.9,N,3.2
1505027675.1,286046992.6,N,3.1
1505027695.9,286046992.3,N,2.9
1505027715.7,286046986.3,Y,0.0
1505027735.5,286046997.2,P,0.7
1505027755.4,286046998.0,N,0.9
1505027775.2,286046997.6,N,0.8
1505027795.1,286046998.0,N,0.8
1505027796.0,286046998.0,N,0.8
1505027815.8,286046995.1,Y,0.0
1505027835.6,286046999.1,P,0.8
1505027855.5,286046999.3,N,0.8
1505027875.3,286046998.7,N,0.7
1505027895.2,286047000.7,N,1.0
1505027915.9,286046999.3,N,1.0
1505027935.7,286046999.3,N,0.9
1505027955.6,286046998.7,N,0.8
1505027975.4,286046998.3,N,0.8
1505027995.2,286046998.9,N,0.8
1505028015.1,286046999.0,N,0.8
1505028016.0,286046999.0,N,0.7
1505028035.8,286046998.6,N,0.7
1505028055.7,286046998.6,N,0.7
1505028075.5,286046998.8,N,0.7
1505028095.3,286046998.4,N,0.7
1505028115.2,286047000.0,N,0.7
1505028135.0,286047000.0,N,0.7
1505028135.9,286047000.0,N,0.7
1505028155.8,286047000.6,N,0.8
1505028175.6,286047000.7,N,0.8
1505028195.4,286047000.6,N,0.9
1505028215.3,286047000.7,N,0.9
1505028235.1,286046998.8,N,0.9
1505028255.9,286046998.8,N,0.9
1505028275.7,286047000.6,N,0.9
1505028295.5,286046999.8,N,0.9
1505028315.4,286047001.5,N,0.9
1505028335.2,286047004.0,Y,0.0
1505028355.0,286047002.2,P,1.4
1505028355.9,286047002.2,N,1.3
1505028375.8,286047000.4,N,1.2
1505028395.6,286047000.1,N,1.1
1505028415.5,286047002.2,N,1.1
1505028435.3,286047004.3,Y,0.0
1505028455.1,286043162.1,P,1919.5
1505028475.9,286047002.3,N,1810.0
1505028495.7,286046999.7,N,1662.3
1505028515.6,286047000.1,N,1535.5
1505028535.4,286046999.7,N,1430.5
1505028555.2,286047000.2,N,1343.1
1505028575.1,286047000.0,N,1269.4
1505028576.0,286047000.0,N,1206.2
1505028595.8,286046998.5,N,1151.4
1505028615.6,286046996.9,N,1103.3
1505028635.5,286046999.6,N,1060.7
1505028655.3,286046998.9,N,1022.6
1505028675.2,286047000.8,N,988.4
1505028695.9,286047002.0,N,957.3
1505028715.7,286047004.3,N,929.1
1505028735.6,286047001.7,N,903.1
1505028755.4,286047001.9,N,879.2
1505028775.2,286047002.8,N,857.1
1505028795.1,286047002.6,N,836.6
1505028796.0,286047002.6,N,817.5
1505028815.8,286047000.2,N,799.6
1505028835.7,286047002.0,N,782.8
1505028855.5,286047002.2,N,767.1
1505028875.4,286047002.8,N,752.2
1505028895.2,286047000.3,N,738.2
1505028915.0,286042673.8,Y,0.0
1505028915.9,286047000.3,P,73.5
1505028935.8,286047148.3,N,120.4
1505028955.6,286047148.3,N,122.3
1505028975.4,286047145.8,N,117.7
1505028995.3,286047146.7,N,112.3
1505029015.1,286047145.5,N,106.9
1505029035.9,286047145.3,N,102.1
1505029055.7,286047149.9,N,97.9
1505029075.5,286047145.7,N,94.0
1505029095.4,286047145.8,N,90.5
1505029115.2,286047144.1,N,87.2
1505029135.1,286047146.6,N,84.4
1505029136.0,286047146.6,N,81.8
1505029155.8,286047146.1,N,79.4
1505029175.6,286047147.4,N,77.2
1505029195.5,286047147.5,N,75.2
1505029215.3,286047147.9,N,73.3
1505029235.1,286047149.6,N,71.6
1505029255.9,286047149.7,N,70.1
1505029275.7,286047148.9,N,68.6
1505029295.6,286047150.0,N,67.2
1505029315.4,286047148.1,N,65.8
1505029335.2,286047148.4,N,64.6
1505029355.1,286047146.7,N,63.4
1505029356.0,286047146.7,N,62.2
1505029375.8,286047144.2,N,61.1
1505029395.7,286047146.6,N,60.1
1505029415.5,286047148.2,N,59.1
1505029435.3,286047145.4,N,58.2
1505029455.2,286047145.5,N,26.4
1505029475.0,286047147.8,Y,0.0
1505029475.9,286047147.8,P,2.8
1505029495.8,286047005.5,N,65.8
1505029515.6,286047005.2,N,69.9
1505029535.4,286047005.0,N,68.5
1505029555.3,286047004.9,N,65.9
1505029575.1,286047006.9,N,63.0
1505029595.9,286047005.5,N,60.4
1505029615.7,286047003.6,N,58.1
1505029635.5,286047004.0,N,56.0
1505029655.4,286047004.3,N,54.0
1505029675.2,286047004.2,N,52.2
1505029695.0,286047005.7,N,50.5
1505029696.0,286047005.7,N,49.0
1505029715.8,286047004.6,N,47.6
1505029735.6,286047006.3,N,46.3
1505029755.5,286047006.7,N,45.1
1505029775.3,286047005.2,N,44.0
1505029795.1,286047006.9,N,42.9
1505029815.9,286047006.1,N,41.9
1505029835.7,286047006.1,N,41.0
1505029855.6,286047007.1,N,40.1
1505029875.4,286047004.8,N,39.3
1505029895.2,286047007.6,N,38.6
1505029915.1,286047004.9,N,37.9
1505029916.0,286047004.9,N,37.2
1505029935.8,286047007.2,N,36.5
1505029955.7,286047004.6,N,35.9
1505029975.5,286047003.3,N,35.4
1505029995.3,286047006.0,N,34.8
1505030015.2,286047003.3,N,25.6
1505030035.0,286047003.5,N,1.2
1505030035.9,286047003.5,N,1.2
1505030055.8,286047003.2,N,1.3
1505030075.6,286047003.8,N,1.3
1505030095.4,286047002.0,N,1.4
1505030115.3,286047001.8,N,1.5
1505030135.1,286047003.2,N,1.5
1505030155.9,286047003.8,N,1.5
1505030175.7,286047003.5,N,1.5
1505030195.5,286047002.9,N,1.6
1505030215.4,286047003.2,N,1.6
1505030235.2,286047003.4,N,1.6
1505030255.1,286047003.0,N,1.6
1505030256.0,286047003.0,N,1.6
1505030275.8,286047005.0,Y,0.0
1505030295.6,286047002.8,P,0.8
1505030315.5,286047000.2,N,1.8
1505030335.3,286047002.7,N,1.5
1505030355.2,286047001.3,N,1.5
1505030375.9,286047002.1,N,1.3
1505030395.7,286047000.9,N,1.3
